QPF
0.00 0.00 0.00 0.00 0.00 0.00 0.00 0.00 0.00 0.01 0.02 0.04 0.07 0.11 0.18 0.25 0.29 0.28 0.30 0.33 0.37 0.40 0.40 0.39 0.39 0.36 0.34 0.32 0.28 0.24 0.20 0.17 0.13 0.08 0.05 0.03 0.02 0.01 0.01 0.00 0.00 0.00 0.00
0.00 0.00 0.00 0.00 0.00 0.00 0.00 0.01 0.01 0.02 0.04 0.09 0.15 0.25 0.34 0.40 0.41 0.43 0.49 0.59 0.65 0.64 0.61 0.57 0.51 0.44 0.40 0.37 0.31 0.27 0.20 0.14 0.09 0.06 0.05 0.03 0.02 0.01 0.01 0.01 0.00 0.00 0.00
0.00 0.00 0.00 0.00 0.00 0.00 0.00 0.01 0.02 0.03 0.05 0.13 0.23 0.34 0.39 0.46 0.54 0.59 0.64 0.65 0.67 0.70 0.65 0.57 0.52 0.49 0.48 0.46 0.40 0.30 0.21 0.13 0.08 0.05 0.04 0.03 0.02 0.01 0.01 0.00 0.00 0.00 0.00
0.00 0.00 0.00 0.00 0.00 0.00 0.00 0.01 0.02 0.05 0.08 0.15 0.24 0.32 0.39 0.48 0.57 0.61 0.62 0.56 0.51 0.46 0.41 0.40 0.43 0.46 0.46 0.43 0.37 0.28 0.19 0.12 0.07 0.04 0.03 0.02 0.01 0.01 0.00 0.00 0.00 0.00 0.00
0.00 0.00 0.00 0.00 0.00 0.00 0.01 0.01 0.03 0.04 0.10 0.16 0.22 0.26 0.33 0.43 0.48 0.49 0.44 0.42 0.40 0.34 0.31 0.32 0.33 0.32 0.29 0.26 0.21 0.16 0.12 0.07 0.04 0.03 0.02 0.01 0.01 0.00 0.00 0.00 0.00 0.00 0.00
0.01 0.01 0.01 0.01 0.01 0.01 0.01 0.02 0.03 0.04 0.09 0.13 0.17 0.22 0.30 0.37 0.40 0.36 0.30 0.29 0.26 0.21 0.17 0.14 0.13 0.14 0.13 0.11 0.08 0.04 0.03 0.02 0.02 0.01 0.01 0.01 0.01 0.00 0.00 0.00 0.00 0.00 0.00
0.01 0.01 0.01 0.01 0.01 0.01 0.01 0.02 0.02 0.04 0.07 0.10 0.17 0.22 0.24 0.26 0.24 0.21 0.20 0.16 0.12 0.10 0.09 0.08 0.08 0.08 0.06 0.04 0.03 0.02 0.02 0.01 0.01 0.01 0.01 0.01 0.00 0.00 0.00 0.00 0.00 0.00 0.00
0.02 0.02 0.02 0.02 0.02 0.02 0.02 0.02 0.03 0.04 0.05 0.08 0.11 0.12 0.11 0.10 0.08 0.06 0.05 0.04 0.03 0.04 0.04 0.03 0.03 0.03 0.03 0.02 0.01 0.01 0.01 0.01 0.01 0.00 0.00 0.00 0.00 0.00 0.00 0.00 0.00 0.00 0.00
0.03 0.03 0.02 0.02 0.02 0.02 0.03 0.03 0.03 0.03 0.04 0.04 0.04 0.05 0.04 0.03 0.02 0.02 0.01 0.01 0.02 0.02 0.02 0.02 0.02 0.01 0.01 0.01 0.01 0.01 0.00 0.00 0.00 0.01 0.01 0.01 0.01 0.00 0.00 0.00 0.00 0.00 0.00
0.03 0.03 0.03 0.02 0.02 0.02 0.02 0.02 0.02 0.02 0.01 0.01 0.01 0.01 0.01 0.01 0.01 0.00 0.00 0.01 0.01 0.01 0.01 0.01 0.01 0.01 0.01 0.01 0.01 0.01 0.01 0.01 0.01 0.01 0.01 0.01 0.00 0.00 0.00 0.00 0.00 0.00 0.00
0.03 0.02 0.02 0.02 0.01 0.01 0.01 0.01 0.01 0.00 0.01 0.00 0.00 0.00 0.00 0.00 0.00 0.00 0.00 0.00 0.01 0.01 0.01 0.01 0.01 0.01 0.01 0.01 0.01 0.01 0.01 0.00 0.00 0.00 0.00 0.00 0.00 0.00 0.00 0.00 0.00 0.00 0.00
0.02 0.02 0.01 0.01 0.00 0.00 0.00 0.00 0.00 0.00 0.00 0.00 0.00 0.00 0.00 0.00 0.00 0.00 0.01 0.01 0.01 0.01 0.01 0.01 0.01 0.01 0.01 0.00 0.00 0.00 0.00 0.00 0.00 0.00 0.00 0.00 0.00 0.00 0.00 0.00 0.00 0.00 0.01
0.02 0.01 0.01 0.01 0.00 0.00 0.00 0.00 0.00 0.00 0.00 0.00 0.00 0.00 0.00 0.00 0.00 0.00 0.00 0.00 0.01 0.01 0.01 0.01 0.01 0.00 0.00 0.00 0.00 0.00 0.00 0.00 0.00 0.00 0.00 0.00 0.00 0.00 0.00 0.01 0.01 0.01 0.01
0.02 0.01 0.01 0.00 0.00 0.00 0.00 0.00 0.00 0.00 0.00 0.00 0.00 0.00 0.00 0.00 0.01 0.01 0.01 0.01 0.01 0.01 0.01 0.01 0.01 0.01 0.01 0.00 0.00 0.00 0.00 0.00 0.00 0.00 0.00 0.00 0.00 0.01 0.01 0.02 0.02 0.03 0.03
0.02 0.01 0.01 0.00 0.00 0.00 0.00 0.00 0.00 0.00 0.00 0.00 0.00 0.00 0.01 0.01 0.01 0.01 0.01 0.01 0.01 0.01 0.01 0.01 0.01 0.01 0.00 0.00 0.00 0.00 0.00 0.00 0.00 0.00 0.00 0.00 0.00 0.01 0.01 0.02 0.03 0.05 0.06
0.01 0.01 0.01 0.00 0.00 0.00 0.00 0.00 0.00 0.00 0.00 0.00 0.01 0.01 0.01 0.01 0.02 0.02 0.02 0.02 0.02 0.01 0.01 0.01 0.01 0.01 0.01 0.01 0.01 0.01 0.01 0.00 0.00 0.00 0.00 0.00 0.00 0.00 0.00 0.01 0.01 0.03 0.05
0.02 0.01 0.01 0.01 0.01 0.00 0.00 0.00 0.00 0.01 0.01 0.01 0.02 0.02 0.02 0.02 0.02 0.02 0.02 0.02 0.01 0.01 0.01 0.01 0.01 0.01 0.01 0.00 0.00 0.00 0.00 0.00 0.01 0.01 0.01 0.01 0.01 0.01 0.02 0.02 0.01 0.02 0.02
0.02 0.02 0.01 0.01 0.01 0.01 0.01 0.01 0.01 0.01 0.01 0.02 0.02 0.02 0.02 0.02 0.02 0.01 0.01 0.01 0.01 0.01 0.01 0.00 0.00 0.01 0.00 0.00 0.00 0.00 0.00 0.01 0.01 0.01 0.01 0.02 0.03 0.03 0.02 0.01 0.02 0.03 0.04
0.02 0.02 0.02 0.01 0.01 0.01 0.01 0.01 0.01 0.02 0.02 0.02 0.02 0.02 0.01 0.01 0.00 0.00 0.00 0.00 0.00 0.00 0.00 0.00 0.00 0.01 0.01 0.00 0.00 0.00 0.00 0.01 0.01 0.01 0.01 0.01 0.03 0.01 0.00 0.01 0.03 0.03 0.04
0.01 0.01 0.01 0.01 0.01 0.01 0.01 0.01 0.02 0.02 0.02 0.02 0.01 0.01 0.01 0.00 0.00 0.00 0.00 0.00 0.00 0.00 0.00 0.00 0.00 0.01 0.01 0.00 0.00 0.00 0.01 0.01 0.01 0.01 0.02 0.01 0.01 0.00 0.00 0.01 0.04 0.05 0.04
0.00 0.01 0.01 0.01 0.01 0.01 0.01 0.01 0.01 0.01 0.01 0.01 0.01 0.01 0.00 0.00 0.00 0.00 0.00 0.00 0.00 0.01 0.01 0.01 0.01 0.01 0.01 0.00 0.00 0.00 0.01 0.01 0.01 0.01 0.02 0.02 0.00 0.00 0.00 0.01 0.04 0.04 0.02
0.01 0.01 0.01 0.01 0.01 0.01 0.01 0.01 0.01 0.01 0.01 0.02 0.01 0.01 0.00 0.00 0.00 0.01 0.01 0.01 0.01 0.01 0.01 0.01 0.01 0.01 0.01 0.01 0.00 0.00 0.00 0.00 0.02 0.03 0.02 0.02 0.00 0.00 0.00 0.01 0.02 0.01 0.03
0.00 0.00 0.01 0.01 0.01 0.01 0.01 0.01 0.01 0.01 0.02 0.02 0.01 0.01 0.01 0.01 0.00 0.01 0.01 0.01 0.01 0.01 0.01 0.01 0.01 0.01 0.01 0.01 0.00 0.00 0.00 0.00 0.01 0.02 0.01 0.01 0.00 0.01 0.03 0.02 0.01 0.03 0.06
0.00 0.00 0.01 0.01 0.01 0.00 0.00 0.01 0.01 0.01 0.01 0.01 0.01 0.01 0.01 0.01 0.01 0.01 0.01 0.01 0.02 0.01 0.01 0.01 0.01 0.01 0.01 0.01 0.01 0.00 0.01 0.01 0.01 0.01 0.01 0.01 0.01 0.02 0.03 0.03 0.04 0.05 0.06
0.00 0.00 0.00 0.00 0.00 0.00 0.00 0.00 0.01 0.01 0.01 0.01 0.01 0.01 0.01 0.01 0.01 0.01 0.01 0.01 0.01 0.00 0.00 0.01 0.01 0.01 0.01 0.01 0.01 0.01 0.01 0.01 0.01 0.01 0.02 0.03 0.03 0.02 0.03 0.03 0.04 0.05 0.06
0.00 0.00 0.00 0.00 0.00 0.00 0.00 0.00 0.00 0.00 0.01 0.01 0.01 0.01 0.01 0.01 0.01 0.01 0.02 0.01 0.00 0.00 0.00 0.00 0.00 0.01 0.01 0.01 0.01 0.01 0.01 0.01 0.01 0.01 0.02 0.02 0.02 0.02 0.02 0.02 0.03 0.04 0.05
MSLP
1006.93 1006.88 1006.87 1006.92 1007.09 1007.41 1007.92 1008.61 1009.48 1010.47 1011.52 1012.55 1013.51 1014.35 1015.05 1015.60 1016.05 1016.43 1016.78 1017.15 1017.54 1017.98 1018.43 1018.89 1019.32 1019.69 1019.99 1020.20 1020.33 1020.39 1020.37 1020.31 1020.20 1020.07 1019.93 1019.79 1019.65 1019.54 1019.47 1019.44 1019.45 1019.49 1019.56
1007.41 1007.24 1007.08 1006.99 1007.02 1007.22 1007.64 1008.28 1009.15 1010.16 1011.26 1012.34 1013.35 1014.22 1014.93 1015.47 1015.89 1016.23 1016.55 1016.89 1017.28 1017.74 1018.25 1018.78 1019.30 1019.78 1020.18 1020.49 1020.69 1020.80 1020.82 1020.76 1020.65 1020.48 1020.29 1020.09 1019.88 1019.69 1019.53 1019.41 1019.34 1019.33 1019.35
1008.25 1008.00 1007.72 1007.50 1007.39 1007.46 1007.77 1008.32 1009.13 1010.10 1011.18 1012.26 1013.27 1014.13 1014.82 1015.33 1015.71 1016.02 1016.30 1016.62 1017.02 1017.50 1018.05 1018.64 1019.23 1019.79 1020.27 1020.66 1020.93 1021.09 1021.15 1021.11 1021.00 1020.82 1020.60 1020.34 1020.07 1019.80 1019.56 1019.36 1019.21 1019.12 1019.09
1009.45 1009.15 1008.80 1008.47 1008.23 1008.17 1008.35 1008.79 1009.48 1010.37 1011.37 1012.39 1013.34 1014.15 1014.80 1015.28 1015.63 1015.91 1016.18 1016.50 1016.90 1017.39 1017.97 1018.60 1019.24 1019.84 1020.37 1020.80 1021.12 1021.32 1021.41 1021.39 1021.29 1021.12 1020.88 1020.59 1020.27 1019.94 1019.61 1019.32 1019.08 1018.91 1018.81
1010.91 1010.61 1010.23 1009.83 1009.49 1009.31 1009.35 1009.65 1010.20 1010.95 1011.83 1012.74 1013.60 1014.34 1014.95 1015.39 1015.73 1016.01 1016.29 1016.62 1017.03 1017.53 1018.12 1018.76 1019.41 1020.01 1020.55 1020.98 1021.31 1021.53 1021.63 1021.63 1021.55 1021.38 1021.14 1020.83 1020.48 1020.09 1019.70 1019.33 1019.00 1018.74 1018.56
1012.49 1012.24 1011.86 1011.43 1011.03 1010.75 1010.67 1010.81 1011.21 1011.80 1012.52 1013.29 1014.04 1014.71 1015.26 1015.69 1016.04 1016.34 1016.64 1017.00 1017.44 1017.95 1018.54 1019.16 1019.77 1020.34 1020.83 1021.23 1021.53 1021.72 1021.82 1021.83 1021.75 1021.60 1021.37 1021.06 1020.69 1020.27 1019.82 1019.38 1018.97 1018.62 1018.35
1014.03 1013.85 1013.52 1013.10 1012.67 1012.32 1012.13 1012.14 1012.38 1012.80 1013.37 1014.00 1014.64 1015.23 1015.74 1016.16 1016.53 1016.87 1017.22 1017.62 1018.08 1018.61 1019.17 1019.74 1020.29 1020.78 1021.19 1021.51 1021.74 1021.89 1021.96 1021.96 1021.89 1021.75 1021.53 1021.24 1020.87 1020.43 1019.95 1019.45 1018.98 1018.55 1018.21
1015.38 1015.31 1015.05 1014.67 1014.24 1013.86 1013.60 1013.50 1013.60 1013.88 1014.30 1014.80 1015.33 1015.85 1016.33 1016.75 1017.15 1017.54 1017.95 1018.39 1018.88 1019.39 1019.92 1020.43 1020.89 1021.27 1021.57 1021.79 1021.93 1022.00 1022.02 1021.99 1021.92 1021.79 1021.60 1021.33 1020.98 1020.55 1020.06 1019.54 1019.02 1018.55 1018.14
1016.45 1016.49 1016.32 1016.01 1015.63 1015.25 1014.95 1014.79 1014.79 1014.96 1015.26 1015.65 1016.09 1016.54 1016.99 1017.43 1017.85 1018.28 1018.73 1019.21 1019.70 1020.20 1020.68 1021.11 1021.46 1021.73 1021.91 1022.01 1022.04 1022.03 1021.99 1021.93 1021.85 1021.73 1021.57 1021.33 1021.01 1020.61 1020.14 1019.63 1019.10 1018.60 1018.16
1017.22 1017.37 1017.30 1017.08 1016.76 1016.42 1016.14 1015.95 1015.91 1016.00 1016.22 1016.53 1016.90 1017.30 1017.72 1018.15 1018.58 1019.03 1019.50 1019.98 1020.46 1020.93 1021.35 1021.69 1021.95 1022.10 1022.17 1022.15 1022.09 1021.99 1021.89 1021.79 1021.70 1021.59 1021.45 1021.25 1020.98 1020.63 1020.20 1019.72 1019.21 1018.71 1018.25
1017.75 1017.98 1018.02 1017.89 1017.66 1017.39 1017.15 1016.99 1016.95 1017.02 1017.19 1017.45 1017.77 1018.13 1018.51 1018.91 1019.32 1019.76 1020.21 1020.66 1021.11 1021.52 1021.88 1022.14 1022.31 1022.38 1022.34 1022.24 1022.09 1021.93 1021.78 1021.64 1021.53 1021.42 1021.30 1021.14 1020.91 1020.62 1020.25 1019.81 1019.34 1018.87 1018.42
1018.14 1018.45 1018.57 1018.53 1018.40 1018.22 1018.07 1017.97 1017.95 1018.04 1018.20 1018.43 1018.72 1019.03 1019.36 1019.71 1020.07 1020.45 1020.85 1021.25 1021.64 1021.99 1022.28 1022.48 1022.59 1022.58 1022.49 1022.33 1022.13 1021.91 1021.71 1021.55 1021.41 1021.30 1021.18 1021.05 1020.86 1020.61 1020.30 1019.92 1019.51 1019.07 1018.64
1018.52 1018.88 1019.06 1019.11 1019.07 1018.99 1018.92 1018.91 1018.95 1019.07 1019.25 1019.48 1019.73 1019.99 1020.27 1020.54 1020.83 1021.13 1021.44 1021.76 1022.08 1022.36 1022.60 1022.75 1022.82 1022.78 1022.66 1022.47 1022.24 1022.00 1021.77 1021.57 1021.40 1021.27 1021.14 1021.00 1020.84 1020.62 1020.35 1020.02 1019.65 1019.25 1018.85
1018.97 1019.35 1019.58 1019.69 1019.73 1019.74 1019.77 1019.83 1019.95 1020.12 1020.32 1020.55 1020.77 1020.99 1021.19 1021.39 1021.58 1021.78 1021.99 1022.22 1022.46 1022.69 1022.87 1023.00 1023.05 1023.02 1022.90 1022.71 1022.47 1022.22 1021.96 1021.72 1021.52 1021.34 1021.18 1021.02 1020.85 1020.64 1020.39 1020.09 1019.74 1019.37 1018.97
1019.55 1019.93 1020.18 1020.33 1020.42 1020.50 1020.60 1020.73 1020.91 1021.12 1021.35 1021.58 1021.78 1021.95 1022.08 1022.19 1022.28 1022.38 1022.50 1022.65 1022.81 1022.98 1023.14 1023.26 1023.32 1023.30 1023.21 1023.04 1022.81 1022.55 1022.27 1021.99 1021.73 1021.49 1021.27 1021.07 1020.86 1020.62 1020.36 1020.07 1019.73 1019.35 1018.95
1020.23 1020.59 1020.83 1021.00 1021.12 1021.23 1021.38 1021.56 1021.78 1022.02 1022.26 1022.48 1022.66 1022.78 1022.86 1022.89 1022.90 1022.91 1022.95 1023.02 1023.13 1023.26 1023.40 1023.53 1023.61 1023.62 1023.56 1023.42 1023.21 1022.93 1022.62 1022.30 1021.97 1021.66 1021.37 1021.09 1020.82 1020.54 1020.25 1019.92 1019.56 1019.17 1018.75
1020.97 1021.29 1021.51 1021.66 1021.78 1021.90 1022.06 1022.25 1022.49 1022.74 1022.98 1023.18 1023.34 1023.43 1023.45 1023.43 1023.38 1023.33 1023.30 1023.32 1023.39 1023.50 1023.64 1023.78 1023.89 1023.93 1023.90 1023.78 1023.58 1023.29 1022.95 1022.57 1022.17 1021.78 1021.41 1021.05 1020.70 1020.36 1020.01 1019.64 1019.25 1018.82 1018.36
1021.67 1021.96 1022.14 1022.26 1022.35 1022.46 1022.59 1022.78 1022.99 1023.22 1023.45 1023.64 1023.77 1023.83 1023.83 1023.77 1023.69 1023.60 1023.54 1023.54 1023.59 1023.69 1023.83 1023.98 1024.10 1024.17 1024.16 1024.05 1023.85 1023.54 1023.17 1022.73 1022.27 1021.81 1021.35 1020.92 1020.50 1020.09 1019.68 1019.25 1018.81 1018.34 1017.84
1022.27 1022.52 1022.66 1022.74 1022.80 1022.87 1022.97 1023.10 1023.29 1023.48 1023.68 1023.84 1023.96 1024.00 1023.99 1023.92 1023.83 1023.74 1023.68 1023.66 1023.71 1023.81 1023.95 1024.11 1024.24 1024.31 1024.31 1024.20 1023.98 1023.65 1023.24 1022.77 1022.25 1021.72 1021.20 1020.70 1020.22 1019.75 1019.28 1018.81 1018.32 1017.81 1017.27
1022.73 1022.94 1023.05 1023.10 1023.11 1023.13 1023.18 1023.27 1023.41 1023.56 1023.72 1023.86 1023.95 1024.00 1023.99 1023.93 1023.86 1023.78 1023.73 1023.73 1023.78 1023.88 1024.02 1024.16 1024.29 1024.35 1024.34 1024.21 1023.98 1023.63 1023.19 1022.68 1022.13 1021.56 1021.00 1020.45 1019.92 1019.41 1018.91 1018.39 1017.86 1017.32 1016.74
1023.02 1023.21 1023.30 1023.32 1023.30 1023.28 1023.29 1023.33 1023.41 1023.52 1023.64 1023.76 1023.84 1023.89 1023.89 1023.86 1023.81 1023.77 1023.74 1023.75 1023.82 1023.92 1024.05 1024.18 1024.28 1024.33 1024.28 1024.14 1023.88 1023.52 1023.06 1022.53 1021.96 1021.37 1020.78 1020.21 1019.66 1019.13 1018.60 1018.06 1017.51 1016.93 1016.34
1023.18 1023.36 1023.43 1023.44 1023.40 1023.35 1023.32 1023.32 1023.36 1023.43 1023.52 1023.62 1023.69 1023.75 1023.77 1023.77 1023.75 1023.74 1023.75 1023.78 1023.85 1023.95 1024.07 1024.18 1024.26 1024.27 1024.20 1024.03 1023.76 1023.38 1022.91 1022.37 1021.80 1021.21 1020.62 1020.04 1019.48 1018.94 1018.39 1017.84 1017.28 1016.69 1016.09
1023.23 1023.41 1023.49 1023.49 1023.44 1023.39 1023.33 1023.30 1023.31 1023.35 1023.41 1023.48 1023.55 1023.61 1023.66 1023.69 1023.71 1023.73 1023.76 1023.82 1023.91 1024.01 1024.11 1024.20 1024.25 1024.24 1024.15 1023.95 1023.66 1023.27 1022.80 1022.27 1021.70 1021.11 1020.52 1019.95 1019.39 1018.83 1018.29 1017.73 1017.17 1016.58 1015.97
1023.24 1023.41 1023.49 1023.50 1023.46 1023.40 1023.34 1023.30 1023.28 1023.29 1023.33 1023.38 1023.44 1023.50 1023.56 1023.61 1023.66 1023.72 1023.78 1023.87 1023.96 1024.07 1024.17 1024.25 1024.28 1024.25 1024.14 1023.93 1023.63 1023.24 1022.77 1022.24 1021.67 1021.08 1020.50 1019.92 1019.35 1018.79 1018.24 1017.68 1017.11 1016.53 1015.94
1023.23 1023.40 1023.48 1023.50 1023.47 1023.41 1023.35 1023.29 1023.26 1023.25 1023.26 1023.29 1023.34 1023.39 1023.45 1023.52 1023.59 1023.68 1023.77 1023.88 1024.00 1024.12 1024.22 1024.30 1024.33 1024.29 1024.18 1023.97 1023.66 1023.27 1022.80 1022.27 1021.70 1021.11 1020.51 1019.92 1019.33 1018.76 1018.20 1017.63 1017.07 1016.49 1015.92
1023.24 1023.40 1023.48 1023.50 1023.48 1023.42 1023.36 1023.29 1023.23 1023.19 1023.17 1023.18 1023.20 1023.24 1023.30 1023.37 1023.46 1023.57 1023.69 1023.82 1023.97 1024.11 1024.24 1024.33 1024.37 1024.34 1024.23 1024.03 1023.73 1023.34 1022.87 1022.34 1021.75 1021.15 1020.52 1019.90 1019.29 1018.69 1018.11 1017.54 1016.97 1016.41 1015.86
Thickness
5815 5817 5815 5812 5808 5802 5795 5788 5780 5773 5764 5757 5749 5741 5734 5727 5721 5715 5709 5703 5697 5689 5681 5676 5670 5666 5663 5660 5657 5654 5652 5650 5649 5650 5649 5649 5648 5648 5646 5646 5644 5642 5639
5804 5806 5807 5806 5803 5798 5793 5786 5779 5773 5765 5758 5749 5741 5732 5723 5716 5709 5704 5698 5692 5685 5677 5671 5666 5661 5656 5653 5650 5646 5644 5642 5641 5641 5640 5642 5642 5638 5639 5635 5633 5631 5629
5789 5792 5795 5796 5796 5793 5790 5785 5779 5772 5764 5755 5745 5735 5725 5717 5709 5703 5698 5693 5686 5679 5672 5666 5659 5654 5650 5647 5643 5640 5638 5636 5633 5632 5631 5632 5634 5637 5632 5627 5623 5619 5618
5777 5781 5784 5785 5786 5786 5784 5780 5774 5767 5759 5751 5741 5732 5723 5714 5707 5699 5692 5685 5678 5672 5666 5660 5654 5649 5645 5641 5637 5633 5631 5628 5627 5623 5619 5618 5617 5616 5620 5618 5615 5610 5605
5760 5764 5767 5769 5771 5772 5771 5768 5763 5756 5750 5743 5734 5725 5717 5709 5700 5692 5685 5678 5671 5665 5659 5653 5647 5642 5638 5633 5629 5625 5622 5620 5618 5615 5611 5607 5604 5602 5601 5602 5602 5600 5597
5740 5744 5748 5751 5753 5755 5754 5752 5747 5741 5736 5729 5723 5715 5707 5698 5690 5683 5676 5669 5663 5655 5649 5644 5638 5633 5628 5624 5619 5615 5611 5608 5603 5601 5599 5596 5594 5592 5589 5586 5585 5585 5583
5722 5725 5728 5731 5733 5734 5734 5732 5729 5723 5718 5713 5707 5701 5695 5688 5680 5674 5666 5659 5652 5644 5636 5631 5626 5621 5616 5611 5607 5602 5598 5594 5590 5586 5584 5581 5578 5576 5572 5570 5570 5570 5569
5705 5706 5708 5711 5713 5714 5714 5713 5710 5705 5701 5696 5690 5686 5681 5675 5669 5661 5654 5646 5638 5630 5624 5618 5612 5607 5603 5598 5593 5590 5585 5580 5575 5572 5567 5565 5564 5561 5558 5554 5552 5553 5554
5688 5689 5691 5693 5694 5695 5694 5694 5692 5688 5684 5680 5675 5670 5664 5658 5651 5644 5638 5630 5623 5616 5610 5604 5598 5593 5588 5583 5579 5575 5569 5564 5561 5558 5554 5550 5549 5545 5541 5537 5534 5532 5534
5673 5674 5675 5676 5678 5678 5678 5678 5676 5673 5669 5665 5660 5654 5648 5641 5635 5629 5622 5615 5608 5602 5595 5588 5582 5576 5571 5566 5562 5557 5552 5549 5545 5540 5535 5532 5531 5528 5524 5521 5518 5515 5514
5659 5659 5660 5661 5662 5663 5663 5662 5660 5657 5653 5648 5642 5637 5631 5624 5618 5611 5604 5597 5590 5583 5577 5571 5565 5559 5554 5549 5545 5542 5537 5533 5529 5524 5522 5518 5513 5510 5508 5506 5503 5500 5497
5647 5646 5647 5647 5648 5647 5647 5645 5643 5639 5634 5629 5624 5618 5613 5606 5600 5593 5585 5578 5572 5565 5559 5553 5547 5541 5536 5532 5528 5524 5520 5517 5513 5509 5505 5502 5499 5494 5492 5489 5486 5483 5478
5636 5634 5633 5632 5631 5630 5628 5626 5624 5620 5616 5612 5606 5600 5594 5588 5581 5574 5567 5561 5554 5547 5541 5535 5529 5524 5519 5515 5511 5508 5504 5500 5497 5493 5490 5487 5483 5480 5478 5473 5470 5467 5463
5622 5619 5617 5615 5613 5611 5610 5607 5604 5601 5597 5592 5586 5579 5573 5567 5561 5554 5547 5541 5535 5529 5522 5517 5512 5507 5503 5499 5494 5491 5488 5484 5481 5478 5475 5473 5470 5466 5463 5460 5457 5453 5449
5609 5605 5602 5599 5597 5594 5591 5587 5584 5580 5576 5571 5565 5558 5551 5545 5539 5533 5527 5521 5516 5510 5505 5500 5496 5491 5487 5480 5474 5473 5473 5470 5468 5466 5464 5462 5457 5451 5447 5445 5443 5440 5437
5594 5589 5585 5582 5579 5576 5573 5568 5564 5559 5555 5550 5544 5536 5530 5524 5518 5513 5508 5503 5498 5493 5488 5483 5479 5475 5470 5458 5454 5452 5456 5457 5457 5455 5453 5451 5448 5444 5437 5433 5429 5427 5427
5578 5573 5569 5565 5562 5558 5554 5550 5544 5539 5534 5529 5523 5517 5511 5506 5502 5497 5491 5486 5481 5476 5471 5467 5463 5459 5451 5443 5439 5438 5440 5445 5445 5443 5442 5441 5439 5433 5431 5427 5425 5425 5424
5563 5558 5553 5549 5545 5540 5535 5531 5526 5520 5516 5511 5505 5500 5496 5491 5486 5480 5475 5470 5465 5461 5456 5452 5447 5444 5438 5430 5427 5426 5431 5435 5434 5432 5431 5429 5427 5424 5418 5418 5421 5423 5424
5547 5543 5539 5535 5529 5524 5519 5515 5510 5505 5500 5496 5491 5486 5481 5476 5470 5465 5459 5454 5450 5446 5442 5437 5433 5430 5426 5418 5415 5413 5421 5424 5424 5423 5422 5420 5418 5414 5409 5412 5418 5422 5423
5533 5528 5524 5519 5514 5509 5505 5501 5496 5492 5487 5482 5477 5471 5466 5461 5455 5450 5445 5441 5436 5432 5429 5424 5420 5417 5414 5408 5404 5402 5410 5413 5414 5415 5415 5414 5410 5407 5406 5410 5416 5419 5422
5519 5516 5511 5506 5501 5496 5493 5489 5484 5479 5474 5468 5463 5457 5451 5446 5441 5436 5432 5428 5425 5420 5416 5413 5409 5405 5402 5399 5395 5393 5397 5400 5404 5407 5409 5410 5406 5406 5407 5408 5414 5416 5416
5508 5504 5500 5495 5490 5486 5483 5479 5473 5467 5462 5456 5450 5444 5439 5435 5430 5425 5420 5417 5413 5409 5406 5402 5400 5397 5393 5390 5388 5387 5387 5388 5395 5400 5403 5406 5404 5406 5409 5412 5415 5416 5418
5498 5494 5491 5486 5482 5477 5474 5469 5462 5457 5451 5445 5440 5433 5428 5423 5418 5414 5411 5407 5403 5401 5398 5394 5391 5389 5387 5385 5382 5383 5385 5387 5391 5397 5399 5402 5406 5409 5415 5417 5417 5419 5424
5490 5486 5483 5479 5473 5468 5464 5459 5453 5447 5442 5436 5429 5424 5419 5414 5409 5405 5402 5399 5396 5393 5391 5387 5384 5382 5381 5380 5378 5380 5384 5387 5392 5397 5402 5405 5409 5413 5416 5419 5423 5424 5425
5483 5479 5476 5471 5465 5460 5455 5450 5444 5438 5433 5427 5421 5416 5412 5408 5402 5399 5394 5391 5387 5381 5379 5379 5377 5375 5374 5371 5369 5371 5378 5382 5388 5392 5402 5408 5412 5415 5419 5422 5424 5425 5426
5476 5472 5468 5464 5459 5454 5448 5442 5436 5431 5425 5420 5415 5411 5407 5403 5400 5396 5392 5381 5379 5374 5370 5368 5366 5369 5367 5367 5370 5373 5377 5383 5387 5394 5401 5406 5409 5413 5415 5419 5422 5425 5425